Weather History for Three Rivers, MI

Change the Weather History Date:

Saturday, March 8, 2014

  Actual Average Record
Temperature  
Mean Temperature 28 °F -  
Max Temperature 38 °F 43 °F 72 °F (1987)
Min Temperature 17 °F 21 °F -1 °F (1960)
Degree Days  
Heating Degree Days 36    
Moisture  
Dew Point 26 °F    
Average Humidity 78    
Maximum Humidity 90    
Minimum Humidity 64    
Precipitation  
Precipitation 0.00 in - - ()
Sea Level Pressure  
Sea Level Pressure 30.08 in    
Wind  
Wind Speed 6 mph (NNW)    
Max Wind Speed 13 mph    
Max Gust Speed 17 mph    
Visibility 6 miles    
Events Rain , Snow    
Averages and records for this station are not official NWS values.
T = Trace of Precipitation, MM = Missing Value Source: NWS Daily Summary

Daily Weather History Graph

Daily Weather History Graph

Search for Another Location

Airport:

Trip Planner

Search our weather history database for the weather conditions in past years. The results will help you decide how hot, cold, wet, or windy it might be!

Date:

Astronomy

Mar. 08, 2014 Rise Set
Actual Time 7:05 AM EST 6:40 PM EST
Civil Twilight 6:38 AM EST 7:08 PM EST
Nautical Twilight 6:05 AM EST 7:41 PM EST
Astronomical Twilight 5:33 AM EST 8:13 PM EST
Moon 11:40 AM EST (3/8) 1:44 AM EST (3/8)
Length of Visible Light 12h 30m
Length of Day
11h 34m
First Quarter, 51% of the Moon is Illuminated
Mar 8
First Quarter
Mar 16
Full
Mar 23
Last Quarter
Mar 30
New
Apr 7
First Quarter

Hourly Weather History & Observations

Time (EST) Temp. Windchill Dew Point Humidity Pressure Visibility Wind Dir Wind Speed Gust Speed Precip Events Conditions
12:15 AM 39.2 °F 33.6 °F 29.5 °F 68% 29.94 in 7.0 mi WNW 8.1 mph - N/A   Overcast
12:34 AM 38.8 °F 34.6 °F 30.6 °F 72% 29.94 in 7.0 mi WNW 5.8 mph - N/A Rain Light Rain
12:55 AM 38.8 °F 34.6 °F 30.9 °F 73% 29.94 in 7.0 mi NW 5.8 mph - N/A   Overcast
1:15 AM 38.7 °F 35.2 °F 31.1 °F 74% 29.93 in 7.0 mi NW 4.6 mph - N/A Rain Light Rain
1:34 AM 37.6 °F 34.0 °F 32.0 °F 80% 29.94 in 5.0 mi WNW 4.6 mph - N/A Rain Light Rain
1:55 AM 37.0 °F 32.4 °F 32.0 °F 82% 29.95 in 5.0 mi WNW 5.8 mph - N/A   Haze
2:15 AM 36.9 °F - 32.0 °F 83% 29.93 in 5.0 mi Calm Calm - N/A   Haze
2:35 AM 36.5 °F 32.7 °F 31.8 °F 83% 29.94 in 5.0 mi WNW 4.6 mph - N/A   Overcast
2:55 AM 36.5 °F 33.9 °F 32.0 °F 84% 29.95 in 5.0 mi NW 3.5 mph - N/A   Haze
3:15 AM 36.5 °F 31.8 °F 32.0 °F 84% 29.96 in 5.0 mi NW 5.8 mph - N/A   Mostly Cloudy
3:35 AM 36.1 °F 30.6 °F 31.6 °F 84% 29.96 in 5.0 mi NW 6.9 mph - N/A   Haze
3:55 AM 35.8 °F 30.9 °F 31.1 °F 83% 29.96 in 5.0 mi NNW 5.8 mph - N/A   Haze
4:14 AM 35.6 °F 31.7 °F 30.7 °F 82% 29.96 in 5.0 mi NNW 4.6 mph - N/A   Haze
4:35 AM 35.4 °F 29.7 °F 30.7 °F 83% 29.96 in 5.0 mi NNW 6.9 mph - N/A   Overcast
4:55 AM 34.9 °F 28.3 °F 30.4 °F 84% 29.97 in 5.0 mi NNW 8.1 mph - N/A   Haze
5:14 AM 34.7 °F 28.8 °F 30.2 °F 84% 29.97 in 4.0 mi NNW 6.9 mph - N/A   Haze
5:35 AM 34.3 °F 30.2 °F 30.2 °F 85% 29.98 in 4.0 mi NNW 4.6 mph - N/A   Overcast
5:55 AM 34.3 °F 29.2 °F 30.2 °F 85% 30.00 in 4.0 mi NNW 5.8 mph - N/A   Overcast
6:14 AM 34.2 °F 30.0 °F 30.2 °F 85% 30.01 in 4.0 mi NNW 4.6 mph - N/A   Overcast
6:35 AM 34.0 °F 28.8 °F 30.2 °F 86% 30.01 in 3.0 mi NNW 5.8 mph - N/A Snow Light Snow
6:54 AM 34.0 °F 28.8 °F 30.2 °F 86% 30.02 in 2.5 mi NNW 5.8 mph - N/A Snow Light Snow
7:15 AM 33.8 °F 29.6 °F 30.2 °F 87% 30.03 in 1.8 mi North 4.6 mph - N/A Snow Light Snow
7:35 AM 33.3 °F 28.9 °F 30.2 °F 89% 30.04 in 0.8 mi North 4.6 mph - N/A Snow Light Snow
7:54 AM 32.9 °F 29.8 °F 30.2 °F 90% 30.04 in 0.8 mi North 3.5 mph - N/A Snow Light Snow
8:15 AM 32.9 °F 29.8 °F 30.2 °F 90% 30.05 in 0.8 mi North 3.5 mph - N/A Snow Light Snow
8:35 AM 32.9 °F 29.8 °F 30.2 °F 90% 30.06 in 1.0 mi North 3.5 mph - N/A Snow Light Snow
8:54 AM 32.2 °F 26.7 °F 29.7 °F 90% 30.07 in 0.8 mi North 5.8 mph - N/A Snow Light Snow
9:15 AM 31.6 °F 25.1 °F 28.4 °F 88% 30.07 in 0.8 mi NNE 6.9 mph - N/A Snow Light Snow
9:35 AM 31.1 °F - 28.2 °F 89% 30.09 in 0.8 mi Calm Calm - N/A Snow Light Snow
9:55 AM 31.3 °F - 28.4 °F 89% 30.09 in 0.5 mi Calm Calm - N/A Snow Snow
10:15 AM 31.6 °F - 28.9 °F 90% 30.09 in 0.8 mi Calm Calm - N/A Snow Light Snow
10:34 AM 32.0 °F 27.5 °F 29.1 °F 89% 30.10 in 1.0 mi North 4.6 mph - N/A Snow Light Snow
10:55 AM 32.0 °F 28.7 °F 28.6 °F 87% 30.10 in 1.5 mi North 3.5 mph - N/A Snow Light Snow
11:15 AM 32.0 °F 25.6 °F 28.2 °F 86% 30.10 in 1.8 mi North 6.9 mph - N/A Snow Light Snow
11:34 AM 32.0 °F 27.5 °F 27.3 °F 83% 30.10 in 4.0 mi NNE 4.6 mph - N/A Snow Light Snow
11:55 AM 32.7 °F 26.4 °F 26.4 °F 78% 30.10 in 10.0 mi NNE 6.9 mph - N/A   Overcast
12:15 PM 33.3 °F 27.1 °F 25.3 °F 73% 30.10 in 10.0 mi NNE 6.9 mph - N/A   Overcast
12:34 PM 33.3 °F 28.9 °F 25.2 °F 72% 30.11 in 7.0 mi North 4.6 mph - N/A   Overcast
12:55 PM 33.3 °F 27.1 °F 23.9 °F 69% 30.11 in 7.0 mi North 6.9 mph - N/A   Overcast
1:15 PM 33.1 °F 27.7 °F 23.9 °F 69% 30.11 in 7.0 mi NNE 5.8 mph - N/A   Overcast
1:34 PM 33.1 °F 27.7 °F 24.1 °F 70% 30.10 in 7.0 mi North 5.8 mph - N/A   Overcast
1:55 PM 33.1 °F 26.9 °F 23.9 °F 69% 30.10 in 7.0 mi North 6.9 mph - N/A   Overcast
2:15 PM 32.9 °F 29.8 °F 23.9 °F 69% 30.09 in 7.0 mi NNE 3.5 mph - N/A   Overcast
2:35 PM 33.8 °F 28.6 °F 23.5 °F 66% 30.09 in 7.0 mi NNE 5.8 mph - N/A   Overcast
2:55 PM 33.8 °F 29.6 °F 23.5 °F 66% 30.10 in 7.0 mi North 4.6 mph - N/A   Overcast
3:15 PM 33.8 °F 30.8 °F 23.0 °F 65% 30.10 in 7.0 mi North 3.5 mph - N/A   Overcast
3:35 PM 33.4 °F 29.1 °F 23.2 °F 66% 30.10 in 7.0 mi North 4.6 mph - N/A   Overcast
3:55 PM 33.3 °F 30.2 °F 23.4 °F 67% 30.11 in 7.0 mi North 3.5 mph - N/A   Overcast
4:15 PM 33.4 °F 29.1 °F 22.8 °F 65% 30.11 in 7.0 mi NNW 4.6 mph - N/A   Overcast
4:35 PM 33.3 °F 27.9 °F 22.6 °F 65% 30.11 in 7.0 mi North 5.8 mph - N/A   Overcast
4:54 PM 33.1 °F 27.7 °F 22.5 °F 65% 30.11 in 10.0 mi North 5.8 mph - N/A   Overcast
5:15 PM 32.9 °F 26.7 °F 22.1 °F 65% 30.11 in 10.0 mi North 6.9 mph - N/A   Overcast
5:35 PM 32.9 °F 27.5 °F 21.7 °F 64% 30.12 in 10.0 mi NNW 5.8 mph - N/A   Overcast
5:54 PM 32.4 °F 26.0 °F 21.6 °F 64% 30.13 in 10.0 mi NW 6.9 mph - N/A   Overcast
6:15 PM 32.0 °F 23.0 °F 22.1 °F 67% 30.14 in 10.0 mi WNW 11.5 mph - N/A   Overcast
6:35 PM 30.9 °F 22.8 °F 22.3 °F 70% 30.14 in 10.0 mi WNW 9.2 mph - N/A   Overcast
6:54 PM 30.4 °F 22.9 °F 22.6 °F 73% 30.14 in 10.0 mi WNW 8.1 mph - N/A   Overcast
7:15 PM 30.0 °F 20.5 °F 22.1 °F 72% 30.15 in 10.0 mi WNW 11.5 mph - N/A   Overcast
7:35 PM 29.5 °F 21.1 °F 21.7 °F 73% 30.15 in 10.0 mi WNW 9.2 mph - N/A   Overcast
7:54 PM 28.9 °F 19.8 °F 21.4 °F 73% 30.16 in 10.0 mi WNW 10.4 mph - N/A   Overcast
8:15 PM 28.4 °F 19.7 °F 21.0 °F 74% 30.17 in 10.0 mi NW 9.2 mph - N/A   Overcast
8:35 PM 28.0 °F 20.0 °F 20.8 °F 74% 30.18 in 10.0 mi WNW 8.1 mph - N/A   Overcast
8:54 PM 27.0 °F 16.7 °F 19.9 °F 75% 30.19 in 10.0 mi WNW 11.5 mph - N/A   Overcast
9:15 PM 26.4 °F 15.5 °F 19.9 °F 77% 30.20 in 10.0 mi WNW 12.7 mph - N/A   Overcast
9:34 PM 25.3 °F 14.1 °F 19.4 °F 78% 30.20 in 10.0 mi WNW 12.7 mph 17.3 mph N/A   Overcast
9:55 PM 23.9 °F 14.2 °F 18.5 °F 80% 30.21 in 10.0 mi NW 9.2 mph 17.3 mph N/A   Mostly Cloudy
10:15 PM 23.4 °F 14.3 °F 18.3 °F 81% 30.21 in 10.0 mi WNW 8.1 mph - N/A   Clear
10:34 PM 22.8 °F 14.5 °F 18.0 °F 82% 30.22 in 10.0 mi WNW 6.9 mph - N/A   Clear
10:55 PM 19.2 °F 12.5 °F 14.9 °F 83% 30.21 in 10.0 mi WNW 4.6 mph - N/A   Clear
11:14 PM 18.5 °F 10.4 °F 14.7 °F 85% 30.22 in 10.0 mi WNW 5.8 mph - N/A   Clear
11:35 PM 18.9 °F 13.7 °F 15.4 °F 87% 30.22 in 10.0 mi West 3.5 mph - N/A   Clear
11:55 PM 17.6 °F 10.7 °F 14.2 °F 86% 30.22 in 10.0 mi West 4.6 mph - N/A   Clear